Wind_Speed
2 2 3 3 4 4 3 3 2 1 1 2 2 3 3 3 3 3 3 3 3 3 3 3 3 3 3 3 4 4 4 4 4 4 4 4 4 4 5 5 6 6 7
2 2 3 4 4 4 4 3 3 2 2 2 3 3 3 4 3 3 3 2 2 2 2 3 2 3 3 3 3 3 3 4 4 3 3 3 3 4 5 5 5 6 6
2 3 4 5 5 5 5 4 3 3 3 3 3 3 4 4 4 3 3 2 2 2 2 2 2 2 2 3 3 3 3 3 3 3 2 3 3 4 5 5 5 5 6
2 3 5 5 6 6 6 5 4 3 3 3 3 3 3 4 4 3 3 3 2 2 2 2 2 3 2 3 3 3 3 4 4 3 3 3 3 4 4 4 4 5 5
2 3 4 5 6 6 6 5 4 4 4 3 3 4 4 4 4 3 3 3 3 3 3 3 3 3 3 3 3 3 3 3 3 2 3 3 3 3 3 4 4 4 5
1 3 4 6 6 7 7 6 5 4 4 4 4 4 4 4 4 4 3 3 3 3 3 3 3 3 3 3 3 3 3 3 2 2 2 2 2 2 3 3 4 4 4
0 1 4 6 7 7 8 7 7 6 5 4 4 4 3 4 4 3 3 4 3 3 4 4 4 4 3 3 3 3 2 2 2 1 1 1 1 2 2 3 3 4 4
2 1 3 5 7 7 8 8 8 7 6 5 5 4 4 4 4 4 4 4 4 3 4 4 4 4 3 3 2 2 2 2 1 1 1 1 1 1 2 2 3 3 3
3 3 3 5 7 8 8 9 8 8 7 6 6 5 4 4 4 4 4 4 4 4 4 5 5 4 4 3 3 2 2 2 1 1 1 0 0 1 1 2 2 2 3
4 4 4 5 7 8 9 9 9 8 8 7 6 5 5 5 5 5 5 5 5 5 5 5 5 4 4 3 3 3 3 2 1 1 1 1 1 1 2 2 2 2 3
4 4 4 5 6 7 9 10 10 9 8 7 6 6 5 5 5 5 5 5 6 6 5 5 5 4 3 3 2 2 2 2 1 2 2 2 2 2 2 3 3 2 3
5 5 4 5 6 8 9 10 10 10 9 8 8 7 6 6 6 5 5 6 6 6 6 6 5 4 3 3 2 2 2 2 1 1 2 3 3 3 3 3 3 3 4
6 6 6 6 8 9 10 10 11 12 11 10 9 8 8 7 7 6 6 6 6 6 6 6 5 4 3 2 2 3 3 2 2 2 2 3 3 3 3 3 4 4 4
7 7 7 8 9 10 11 12 12 13 13 12 10 9 8 8 7 6 6 6 6 5 6 5 4 3 2 2 2 3 3 2 2 2 1 1 2 2 3 3 4 5 5
9 9 8 9 11 12 12 13 14 14 14 13 12 11 9 8 8 8 7 6 5 5 5 5 4 3 2 2 2 3 3 2 2 1 1 1 2 2 2 3 4 4 5
9 10 9 10 12 12 13 14 15 15 15 14 13 12 11 9 8 7 6 6 6 5 4 4 4 3 2 2 1 2 2 2 1 1 1 1 1 2 1 2 4 4 4
10 11 11 11 12 12 14 15 15 16 16 15 14 13 12 10 8 7 6 6 6 5 4 4 4 3 3 2 2 1 1 1 1 1 1 1 1 2 2 2 3 3 4
12 12 13 11 12 13 14 14 15 17 16 16 16 14 14 12 10 8 7 6 6 5 5 5 5 4 4 3 2 1 1 1 1 1 1 1 1 2 2 3 3 3 4
13 13 12 10 11 11 13 14 16 17 18 18 17 16 15 14 11 9 8 7 6 5 6 6 6 5 5 4 3 2 1 1 1 2 2 2 2 2 2 2 2 3 3
12 12 12 10 11 12 12 14 15 17 18 19 18 18 17 15 13 11 9 9 7 6 7 7 7 6 5 5 4 3 2 2 1 2 2 3 3 3 2 2 2 2 3
12 11 10 11 10 11 11 13 14 17 18 18 18 18 17 15 14 13 12 10 9 7 7 7 8 7 6 6 5 4 3 2 2 3 3 3 3 3 3 3 3 2 2
11 10 10 9 8 9 11 13 14 18 18 18 18 17 16 15 15 14 13 12 10 8 8 8 8 8 7 7 6 5 4 4 3 3 3 3 3 3 3 3 3 3 2
11 10 10 9 8 8 10 13 16 18 18 18 17 16 15 15 16 15 13 12 11 10 8 8 9 8 8 8 7 6 5 4 4 3 3 3 3 3 2 2 2 2 2
10 10 9 9 8 8 9 11 14 16 18 19 18 17 16 15 16 16 15 13 12 11 9 9 9 9 9 9 8 7 6 5 5 4 4 3 3 3 2 2 1 1 1
10 10 9 8 8 8 10 11 13 17 18 19 19 18 16 16 16 16 16 15 14 12 11 10 10 11 10 10 9 8 7 7 6 5 5 4 4 4 3 2 2 2 2
10 10 9 8 7 6 8 11 13 16 18 19 19 17 16 16 16 16 15 16 16 14 13 12 12 12 12 11 10 9 9 8 7 6 6 6 6 5 5 5 4 4 4
Wind_Direction
207 199 188 188 188 190 192 200 206 251 334 345 337 337 342 351 2 8 15 23 38 46 47 46 50 52 49 52 57 56 53 52 52 56 61 62 66 69 70 78 83 83 82
225 213 198 195 202 203 207 213 221 243 283 303 306 315 327 334 341 346 355 5 11 19 27 33 32 32 34 44 47 44 43 46 48 51 60 65 71 70 74 78 81 83 84
233 215 206 201 204 204 213 220 233 243 263 283 293 305 317 324 328 330 333 339 341 347 357 8 9 8 12 22 32 32 30 35 39 42 56 64 71 74 75 79 81 88 89
236 213 204 207 207 209 217 222 236 244 252 274 288 301 313 318 318 318 320 320 319 325 336 344 350 350 352 5 17 20 23 34 41 43 56 64 69 74 74 81 85 91 95
233 213 207 210 212 215 220 222 233 242 256 267 281 294 304 306 309 310 312 310 309 314 319 328 333 337 342 355 4 7 16 34 43 53 71 71 70 72 75 84 89 94 99
222 209 213 214 216 218 222 223 227 235 250 262 275 284 294 295 298 301 304 302 307 310 311 315 320 326 336 348 354 358 5 27 39 52 59 71 80 92 87 89 93 96 105
352 201 210 216 219 222 225 226 227 232 241 253 270 276 285 288 289 291 294 297 300 304 308 309 313 322 332 340 344 350 353 8 21 37 40 73 103 113 107 102 103 104 111
355 291 224 224 226 229 228 229 230 233 239 246 257 264 273 279 284 287 286 293 294 298 301 304 309 316 318 321 324 325 335 340 355 20 32 70 119 129 130 123 117 116 122
326 298 262 240 232 230 231 232 232 233 235 242 250 256 264 270 278 277 278 288 292 291 292 296 300 303 301 302 309 309 312 312 315 321 335 34 152 169 159 152 145 143 147
318 294 267 249 234 232 233 233 234 232 230 237 245 254 264 269 273 271 271 281 285 286 289 290 291 295 296 293 301 305 305 290 292 272 262 255 243 226 211 193 175 170 169
307 286 271 263 237 232 234 233 233 229 227 232 241 248 256 260 264 268 269 273 277 280 283 286 284 291 291 285 293 302 302 285 287 257 248 245 245 249 225 207 203 197 188
306 293 277 268 250 241 239 236 235 231 228 231 238 245 249 255 259 262 262 265 273 279 278 279 281 285 279 272 278 289 297 295 313 282 259 245 239 240 236 225 216 210 200
299 291 279 271 258 246 238 238 237 231 230 232 237 242 245 248 253 259 258 261 271 278 276 278 284 283 272 268 272 277 288 284 294 291 264 240 233 235 244 232 221 216 210
300 283 276 271 267 257 245 242 236 232 229 228 231 235 239 242 245 252 254 264 268 271 275 279 282 280 266 260 268 276 285 298 308 307 284 241 236 239 241 226 219 219 217
300 284 275 272 267 261 249 248 239 234 230 225 227 230 232 237 241 249 251 261 258 263 268 270 267 263 249 246 260 272 273 288 292 281 257 248 245 246 240 223 214 216 219
301 290 281 274 269 266 250 245 237 232 227 221 223 226 227 231 236 246 247 247 248 255 254 244 242 243 235 222 217 232 257 273 277 297 242 226 244 238 216 201 205 211 216
300 292 286 276 267 262 250 242 235 227 222 218 220 223 223 224 227 235 241 241 244 242 233 223 221 213 208 194 184 190 238 272 268 271 231 226 238 204 187 183 195 201 208
299 294 289 282 269 262 249 237 229 220 219 217 217 218 217 218 221 226 229 232 234 227 220 218 215 205 198 190 187 188 201 245 264 232 193 166 143 155 167 178 189 199 212
305 298 290 282 272 263 246 233 224 219 216 215 216 214 213 214 217 220 221 225 224 219 218 216 211 201 193 192 198 201 200 221 183 149 147 135 128 126 134 148 174 194 209
313 300 294 282 272 262 246 233 222 216 213 215 212 210 211 212 216 218 220 219 219 218 216 210 204 202 198 199 202 199 200 202 169 150 141 131 130 127 122 118 139 178 198
316 308 296 286 273 258 244 234 227 214 212 211 208 207 209 212 215 218 219 220 222 222 217 211 206 206 204 202 200 196 192 189 173 163 150 137 132 125 116 103 102 121 163
319 318 312 300 274 250 237 231 220 210 211 210 205 203 206 211 214 215 216 219 220 218 213 211 207 207 206 202 197 191 187 182 166 158 150 145 141 137 128 111 97 101 111
322 320 312 304 280 258 240 225 214 206 209 209 203 201 205 212 212 212 213 216 217 218 214 210 208 208 204 199 196 194 192 185 177 176 169 166 166 162 153 134 113 117 118
322 321 313 302 290 262 240 221 210 207 205 204 203 204 208 211 210 212 213 214 214 215 214 211 206 206 204 201 198 197 199 197 191 193 197 198 198 195 195 188 163 148 193
321 321 314 302 286 266 235 215 209 205 203 201 203 204 209 209 210 212 214 213 212 214 212 209 207 206 206 205 203 205 207 207 206 209 217 223 222 225 232 241 256 275 279
324 324 317 307 293 271 230 214 207 205 204 202 202 206 208 208 208 209 212 211 212 214 212 210 210 210 213 213 213 215 218 218 217 221 227 234 238 243 249 257 265 274 277
Height
5888 5889 5889 5890 5891 5892 5893 5893 5894 5894 5895 5895 5895 5895 5895 5895 5894 5894 5894 5893 5892 5892 5891 5891 5890 5890 5890 5889 5889 5888 5888 5887 5887 5887 5886 5886 5886 5885 5885 5884 5884 5884 5883
5889 5889 5889 5890 5891 5892 5893 5894 5894 5895 5895 5896 5896 5896 5896 5896 5895 5895 5894 5894 5893 5892 5892 5891 5891 5890 5890 5890 5889 5889 5888 5888 5888 5887 5887 5886 5886 5886 5886 5886 5885 5885 5885
5888 5888 5889 5890 5891 5892 5893 5894 5894 5895 5896 5896 5896 5896 5896 5896 5896 5895 5895 5894 5894 5893 5892 5892 5891 5891 5890 5890 5889 5889 5889 5888 5888 5887 5887 5887 5887 5887 5887 5887 5887 5886 5886
5887 5888 5888 5889 5890 5892 5893 5894 5895 5895 5896 5896 5897 5897 5897 5897 5896 5896 5895 5895 5894 5893 5893 5892 5892 5891 5891 5890 5890 5889 5889 5889 5888 5888 5888 5888 5888 5888 5888 5888 5888 5887 5887
5887 5887 5888 5889 5890 5891 5892 5893 5894 5895 5896 5896 5897 5897 5897 5897 5897 5896 5896 5895 5894 5894 5893 5893 5892 5891 5891 5890 5890 5890 5889 5889 5889 5888 5888 5888 5888 5888 5888 5888 5888 5888 5888
5886 5886 5887 5888 5889 5891 5892 5893 5894 5895 5896 5896 5897 5897 5897 5897 5897 5896 5896 5895 5895 5894 5894 5893 5892 5892 5891 5891 5890 5890 5890 5889 5889 5889 5889 5889 5889 5889 5889 5889 5889 5889 5889
5884 5885 5886 5887 5888 5890 5891 5892 5893 5894 5895 5896 5896 5897 5897 5897 5897 5896 5896 5895 5895 5894 5894 5893 5892 5892 5891 5891 5891 5890 5890 5890 5889 5889 5889 5889 5889 5889 5889 5889 5890 5890 5890
5883 5884 5885 5886 5887 5889 5890 5891 5892 5893 5894 5895 5896 5896 5896 5897 5897 5896 5896 5895 5895 5894 5894 5893 5893 5892 5892 5891 5891 5890 5890 5890 5890 5890 5890 5890 5890 5890 5890 5890 5890 5890 5891
5883 5883 5884 5885 5886 5887 5889 5890 5891 5892 5893 5894 5895 5895 5896 5896 5896 5896 5896 5895 5895 5894 5894 5893 5893 5892 5891 5891 5891 5890 5890 5890 5890 5890 5890 5890 5890 5890 5890 5890 5890 5890 5891
5882 5882 5883 5884 5885 5886 5887 5888 5889 5890 5891 5893 5894 5894 5895 5895 5895 5895 5895 5895 5895 5894 5893 5893 5892 5892 5891 5891 5890 5890 5890 5890 5890 5890 5890 5890 5890 5890 5890 5890 5890 5890 5891
5881 5881 5881 5882 5883 5884 5885 5886 5888 5889 5890 5891 5892 5893 5894 5894 5895 5895 5894 5894 5894 5893 5893 5892 5892 5891 5891 5890 5890 5890 5890 5890 5890 5889 5889 5889 5889 5889 5889 5890 5890 5890 5890
5880 5880 5880 5881 5882 5882 5883 5885 5886 5887 5888 5889 5891 5892 5893 5893 5893 5893 5893 5893 5893 5893 5892 5891 5891 5891 5891 5890 5890 5889 5889 5889 5889 5889 5889 5889 5889 5889 5889 5889 5889 5889 5890
5879 5878 5879 5879 5879 5880 5881 5882 5884 5885 5886 5887 5889 5890 5891 5892 5892 5892 5892 5892 5892 5892 5891 5891 5890 5890 5890 5890 5890 5889 5889 5889 5888 5888 5888 5888 5888 5888 5888 5888 5888 5889 5889
5877 5876 5876 5876 5876 5877 5878 5879 5881 5882 5884 5885 5887 5888 5889 5890 5891 5891 5891 5891 5891 5891 5890 5890 5890 5889 5889 5890 5889 5889 5888 5888 5888 5887 5887 5887 5887 5887 5887 5887 5888 5888 5889
5874 5873 5873 5873 5873 5874 5875 5876 5878 5879 5881 5883 5884 5886 5887 5889 5889 5890 5890 5890 5890 5890 5890 5889 5889 5889 5889 5889 5889 5889 5888 5888 5888 5887 5887 5887 5887 5887 5887 5887 5887 5887 5888
5871 5870 5869 5870 5870 5871 5872 5873 5874 5876 5878 5880 5882 5884 5885 5887 5888 5889 5889 5889 5889 5889 5889 5889 5889 5889 5888 5889 5889 5889 5888 5888 5888 5887 5887 5887 5886 5886 5886 5886 5886 5887 5887
5867 5866 5866 5866 5867 5867 5868 5869 5871 5873 5875 5878 5880 5881 5883 5885 5886 5887 5887 5888 5888 5888 5888 5888 5889 5888 5888 5889 5889 5889 5888 5888 5887 5887 5886 5886 5886 5886 5886 5886 5886 5886 5886
5864 5863 5862 5861 5862 5863 5864 5865 5867 5869 5872 5874 5876 5879 5881 5883 5884 5885 5886 5887 5887 5887 5887 5888 5888 5888 5889 5889 5888 5888 5888 5888 5887 5887 5886 5886 5886 5885 5885 5885 5885 5885 5886
5859 5858 5857 5857 5857 5858 5860 5861 5863 5865 5868 5871 5873 5876 5878 5880 5882 5883 5884 5885 5886 5886 5886 5887 5888 5888 5888 5889 5889 5888 5888 5888 5888 5887 5886 5886 5886 5885 5885 5885 5885 5885 5885
5855 5854 5852 5852 5853 5854 5855 5857 5860 5862 5864 5867 5870 5873 5875 5877 5879 5881 5883 5884 5884 5885 5886 5886 5887 5888 5888 5888 5888 5888 5888 5888 5888 5887 5887 5887 5886 5886 5886 5885 5885 5885 5884
5852 5851 5850 5850 5850 5851 5851 5853 5856 5859 5862 5864 5867 5870 5872 5875 5877 5879 5881 5882 5883 5884 5885 5885 5886 5887 5888 5888 5888 5888 5888 5888 5888 5888 5887 5887 5887 5886 5886 5885 5885 5884 5884
5851 5849 5848 5847 5847 5847 5848 5850 5853 5856 5859 5861 5864 5867 5869 5872 5874 5877 5878 5880 5881 5882 5883 5884 5885 5886 5887 5887 5888 5888 5888 5889 5888 5888 5888 5888 5887 5887 5886 5885 5885 5884 5884
5849 5847 5846 5845 5844 5844 5845 5847 5849 5852 5856 5859 5862 5864 5867 5869 5872 5874 5876 5878 5879 5880 5881 5883 5884 5885 5886 5887 5887 5888 5888 5888 5888 5889 5888 5888 5887 5887 5886 5886 5885 5884 5884
5848 5846 5845 5844 5842 5842 5843 5844 5847 5850 5853 5856 5859 5862 5864 5867 5869 5871 5873 5875 5877 5879 5880 5881 5882 5883 5885 5885 5886 5887 5888 5888 5888 5888 5888 5888 5887 5887 5886 5886 5885 5885 5884
5846 5845 5843 5842 5841 5840 5840 5842 5844 5848 5851 5853 5856 5859 5862 5864 5867 5869 5871 5873 5875 5876 5878 5879 5880 5882 5883 5884 5885 5886 5886 5887 5887 5887 5887 5887 5887 5887 5886 5885 5885 5884 5884
5844 5843 5841 5839 5838 5837 5838 5840 5842 5845 5848 5851 5854 5857 5859 5862 5864 5866 5869 5871 5872 5874 5875 5877 5878 5880 5881 5882 5883 5884 5885 5885 5886 5886 5886 5886 5886 5886 5885 5884 5884 5883 5883